NKS4404 KFLL-TJPS

Flight info

Callsign NKS4404
Flight time 2h 3m
Altitude 39000
Route SNAPR2 SUMAC Y421 MEEGL
Aircraft A319/M-SDE3FGHIRWY/LB1

Departure

Time 2026-05-03 21:20
Airport Fort Lauderdale Hollywood International Airport (KFLL)

Arrival

Time 2026-05-03 23:23
Airport Mercedita International Airport (TJPS)
Time Latitude Longitude Altitude Speed Heading
2026-05-03 20:15 26.06884 -80.14211 34 ft 0 kts
2026-05-03 20:40 26.06877 -80.14211 16 ft 4 kts
2026-05-03 20:40 26.06850 -80.14211 17 ft 4 kts
2026-05-03 20:40 26.06829 -80.14211 18 ft 4 kts 337°
2026-05-03 20:40 26.06817 -80.14194 17 ft 3 kts 270°
2026-05-03 20:41 26.06817 -80.14178 17 ft 0 kts 270°
2026-05-03 20:42 26.06817 -80.14197 17 ft 10 kts 270°
2026-05-03 20:42 26.06817 -80.14255 16 ft 0 kts 271°
2026-05-03 20:43 26.06817 -80.14264 16 ft 0 kts 271°
2026-05-03 20:45 26.06818 -80.14279 16 ft 7 kts 271°
2026-05-03 20:45 26.06819 -80.14340 16 ft 9 kts 271°
2026-05-03 20:45 26.06819 -80.14382 16 ft 0 kts 271°
2026-05-03 20:47 26.06820 -80.14399 16 ft 5 kts 271°
2026-05-03 20:47 26.06820 -80.14444 16 ft 7 kts 271°
2026-05-03 20:48 26.06821 -80.14488 16 ft 10 kts 271°
2026-05-03 20:48 26.06798 -80.14563 15 ft 11 kts 236°
2026-05-03 20:48 26.06764 -80.14647 15 ft 13 kts 266°
2026-05-03 20:48 26.06765 -80.14755 15 ft 15 kts 273°
2026-05-03 20:49 26.06767 -80.14874 15 ft 15 kts 270°
2026-05-03 20:49 26.06767 -80.14980 16 ft 14 kts 270°
2026-05-03 20:49 26.06767 -80.15078 16 ft 11 kts 269°
2026-05-03 20:49 26.06727 -80.15131 19 ft 8 kts 205°
2026-05-03 20:50 26.06694 -80.15169 23 ft 7 kts 250°
2026-05-03 20:50 26.06695 -80.15232 21 ft 12 kts 272°
2026-05-03 20:50 26.06697 -80.15366 16 ft 19 kts 271°
2026-05-03 20:50 26.06696 -80.15463 16 ft 7 kts 269°
2026-05-03 20:51 26.06696 -80.15472 16 ft 1 kts 269°
2026-05-03 20:51 26.06695 -80.15491 16 ft 4 kts 269°
2026-05-03 20:51 26.06695 -80.15516 16 ft 0 kts 269°
2026-05-03 20:53 26.06695 -80.15523 16 ft 3 kts 269°
2026-05-03 20:53 26.06695 -80.15551 16 ft 0 kts 269°
2026-05-03 20:56 26.06695 -80.15552 16 ft 0 kts 269°
2026-05-03 20:57 26.06694 -80.15574 16 ft 5 kts 269°
2026-05-03 20:57 26.06694 -80.15603 16 ft 0 kts 269°
2026-05-03 21:02 26.06694 -80.15611 16 ft 3 kts 271°
2026-05-03 21:02 26.06697 -80.15646 16 ft 6 kts 275°
2026-05-03 21:03 26.06697 -80.15654 16 ft 0 kts 271°
2026-05-03 21:05 26.06697 -80.15660 16 ft 3 kts 271°
2026-05-03 21:06 26.06698 -80.15693 16 ft 5 kts 271°
2026-05-03 21:06 26.06698 -80.15697 16 ft 0 kts 271°
2026-05-03 21:08 26.06698 -80.15704 16 ft 3 kts 271°
2026-05-03 21:08 26.06699 -80.15734 16 ft 5 kts 271°
2026-05-03 21:08 26.06699 -80.15770 16 ft 4 kts 269°
2026-05-03 21:09 26.06699 -80.15774 16 ft 0 kts 270°
2026-05-03 21:10 26.06699 -80.15785 16 ft 4 kts 270°
2026-05-03 21:10 26.06682 -80.15817 18 ft 4 kts 214°
2026-05-03 21:10 26.06678 -80.15819 17 ft 0 kts 202°
2026-05-03 21:11 26.06675 -80.15820 17 ft 1 kts 201°
2026-05-03 21:11 26.06672 -80.15821 17 ft 0 kts 196°
2026-05-03 21:18 26.06661 -80.15824 16 ft 6 kts 196°
2026-05-03 21:18 26.06595 -80.15815 18 ft 9 kts 135°
2026-05-03 21:18 26.06590 -80.15780 19 ft 0 kts 86°
2026-05-03 21:19 26.06592 -80.15746 20 ft 24 kts 87°
2026-05-03 21:19 26.06591 -80.15260 23 ft 104 kts 92°
2026-05-03 21:19 26.06577 -80.14189 154 ft 160 kts 90°
2026-05-03 21:20 26.06532 -80.12968 978 ft 158 kts 89°
2026-05-03 21:20 26.06516 -80.11714 1894 ft 166 kts 88°
2026-05-03 21:20 26.06554 -80.10394 2484 ft 182 kts 86°
2026-05-03 21:20 26.06600 -80.08891 2932 ft 206 kts 88°
2026-05-03 21:21 26.06640 -80.07219 3357 ft 228 kts 88°
2026-05-03 21:21 26.06672 -80.05358 3806 ft 253 kts 90°
2026-05-03 21:21 26.06696 -80.03294 3981 ft 276 kts 89°
2026-05-03 21:21 26.06716 -80.01140 4011 ft 279 kts 90°
2026-05-03 21:22 26.06720 -79.98960 4204 ft 288 kts 90°
2026-05-03 21:22 26.06703 -79.96739 5152 ft 288 kts 91°
2026-05-03 21:22 26.06680 -79.94496 6050 ft 293 kts 91°
2026-05-03 21:22 26.06654 -79.92208 6869 ft 299 kts 92°
2026-05-03 21:23 26.06624 -79.89878 7722 ft 304 kts 92°
2026-05-03 21:23 26.06594 -79.87512 8652 ft 308 kts 92°
2026-05-03 21:23 26.06568 -79.85077 9541 ft 313 kts 92°
2026-05-03 21:23 26.06482 -79.82674 10240 ft 321 kts 98°
2026-05-03 21:24 26.06112 -79.80102 10524 ft 344 kts 102°
2026-05-03 21:24 26.05690 -79.77417 10942 ft 359 kts 102°
2026-05-03 21:24 26.05250 -79.74656 11584 ft 365 kts 102°
2026-05-03 21:24 26.04957 -79.72812 12033 ft 368 kts 102°
2026-05-03 21:25 26.04508 -79.69985 12694 ft 373 kts 102°
2026-05-03 21:25 26.04058 -79.67138 12936 ft 375 kts 102°
2026-05-03 21:25 26.03596 -79.64285 13001 ft 375 kts 103°
2026-05-03 21:25 26.03036 -79.61457 13007 ft 374 kts 106°
2026-05-03 21:26 26.02391 -79.58659 13006 ft 374 kts 107°
2026-05-03 21:26 26.01703 -79.55875 13007 ft 373 kts 108°
2026-05-03 21:26 26.01007 -79.53093 13007 ft 373 kts 108°
2026-05-03 21:26 26.00319 -79.50307 13007 ft 373 kts 108°
2026-05-03 21:27 25.99645 -79.47520 13007 ft 374 kts 107°
2026-05-03 21:27 25.98979 -79.44729 13004 ft 373 kts 107°
2026-05-03 21:27 25.98319 -79.41931 13124 ft 377 kts 107°
2026-05-03 21:27 25.97656 -79.39107 13805 ft 378 kts 108°
2026-05-03 21:28 25.96788 -79.36342 14395 ft 380 kts 114°
2026-05-03 21:28 25.95834 -79.33599 14989 ft 383 kts 114°
2026-05-03 21:28 25.94866 -79.30819 15587 ft 387 kts 114°
2026-05-03 21:28 25.93893 -79.28023 16181 ft 390 kts 114°
2026-05-03 21:29 25.92912 -79.25200 16771 ft 394 kts 114°
2026-05-03 21:29 25.91921 -79.22344 17364 ft 398 kts 114°
2026-05-03 21:29 25.90917 -79.19462 17963 ft 402 kts 114°
2026-05-03 21:29 25.89903 -79.16557 18500 ft 406 kts 114°
2026-05-03 21:30 25.88877 -79.13623 18997 ft 409 kts 115°
2026-05-03 21:30 25.87841 -79.10661 19496 ft 413 kts 115°
2026-05-03 21:30 25.86796 -79.07675 20010 ft 417 kts 115°
2026-05-03 21:30 25.85740 -79.04659 20504 ft 421 kts 115°
2026-05-03 21:31 25.84675 -79.01618 20993 ft 425 kts 115°
2026-05-03 21:31 25.83599 -78.98553 21453 ft 428 kts 115°
2026-05-03 21:31 25.82515 -78.95461 21956 ft 432 kts 115°
2026-05-03 21:31 25.81423 -78.92341 22427 ft 435 kts 115°
2026-05-03 21:32 25.80322 -78.89196 22900 ft 439 kts 115°
2026-05-03 21:32 25.79207 -78.86024 23350 ft 443 kts 115°
2026-05-03 21:32 25.78080 -78.82826 23754 ft 447 kts 115°
2026-05-03 21:32 25.76945 -78.79609 24123 ft 450 kts 116°
2026-05-03 21:33 25.75799 -78.76364 24503 ft 453 kts 116°
2026-05-03 21:33 25.74629 -78.73115 24877 ft 454 kts 118°
2026-05-03 21:33 25.73148 -78.70038 25245 ft 451 kts 128°
2026-05-03 21:33 25.71393 -78.67157 25616 ft 452 kts 129°
2026-05-03 21:34 25.69618 -78.64265 25989 ft 455 kts 129°
2026-05-03 21:34 25.67836 -78.61359 26363 ft 457 kts 129°
2026-05-03 21:34 25.66043 -78.58437 26725 ft 460 kts 129°
2026-05-03 21:34 25.64240 -78.55501 27082 ft 462 kts 129°
2026-05-03 21:35 25.62401 -78.52504 27447 ft 465 kts 129°
2026-05-03 21:35 25.60602 -78.49573 27801 ft 468 kts 129°
2026-05-03 21:35 25.58816 -78.46545 28152 ft 474 kts 124°
2026-05-03 21:35 25.57375 -78.43225 28506 ft 483 kts 115°
2026-05-03 21:36 25.56352 -78.39609 28852 ft 489 kts 109°
2026-05-03 21:36 25.55450 -78.36017 29196 ft 492 kts 109°
2026-05-03 21:36 25.54523 -78.32364 29539 ft 494 kts 110°
2026-05-03 21:36 25.53582 -78.28690 29881 ft 497 kts 110°
2026-05-03 21:37 25.52622 -78.24954 30200 ft 500 kts 110°
2026-05-03 21:37 25.51668 -78.21250 30474 ft 502 kts 110°
2026-05-03 21:37 25.50708 -78.17522 30750 ft 504 kts 110°
2026-05-03 21:37 25.49745 -78.13782 31020 ft 507 kts 110°
2026-05-03 21:38 25.48779 -78.10021 31286 ft 509 kts 110°
2026-05-03 21:38 25.47808 -78.06249 31551 ft 511 kts 110°
2026-05-03 21:38 25.46832 -78.02461 31814 ft 513 kts 110°
2026-05-03 21:38 25.45853 -77.98662 32133 ft 514 kts 110°
2026-05-03 21:39 25.44872 -77.94862 32471 ft 513 kts 110°
2026-05-03 21:39 25.43889 -77.91062 32793 ft 514 kts 110°
2026-05-03 21:39 25.42905 -77.87262 33136 ft 514 kts 110°
2026-05-03 21:39 25.41916 -77.83456 33480 ft 515 kts 110°
2026-05-03 21:40 25.40927 -77.79657 33842 ft 515 kts 110°
2026-05-03 21:40 25.39935 -77.75848 34183 ft 515 kts 110°
2026-05-03 21:40 25.38945 -77.72041 34504 ft 515 kts 110°
2026-05-03 21:40 25.37953 -77.68230 34825 ft 515 kts 110°
2026-05-03 21:41 25.36959 -77.64423 35133 ft 515 kts 110°
2026-05-03 21:41 25.35965 -77.60617 35434 ft 516 kts 110°
2026-05-03 21:41 25.34966 -77.56811 35714 ft 516 kts 110°
2026-05-03 21:41 25.33967 -77.53003 36023 ft 516 kts 110°
2026-05-03 21:42 25.32967 -77.49196 36320 ft 516 kts 110°
2026-05-03 21:42 25.31967 -77.45390 36608 ft 516 kts 110°
2026-05-03 21:42 25.30964 -77.41578 36895 ft 516 kts 110°
2026-05-03 21:42 25.29934 -77.37785 37182 ft 514 kts 114°
2026-05-03 21:43 25.28567 -77.34160 37446 ft 508 kts 122°
2026-05-03 21:43 25.26799 -77.30809 37702 ft 503 kts 129°
2026-05-03 21:43 25.24894 -77.27567 37957 ft 503 kts 129°
2026-05-03 21:43 25.22993 -77.24324 38217 ft 503 kts 129°
2026-05-03 21:44 25.21097 -77.21081 38467 ft 503 kts 129°
2026-05-03 21:44 25.19199 -77.17825 38687 ft 504 kts 129°
2026-05-03 21:44 25.17299 -77.14567 38873 ft 505 kts 129°
2026-05-03 21:44 25.15395 -77.11311 38999 ft 506 kts 129°
2026-05-03 21:45 25.11585 -77.04790 39028 ft 505 kts 129°
2026-05-03 21:45 25.07773 -76.98268 39032 ft 505 kts 129°
2026-05-03 21:46 25.03954 -76.91762 39030 ft 505 kts 129°
2026-05-03 21:46 25.00130 -76.85262 39021 ft 505 kts 129°
2026-05-03 21:47 24.96303 -76.78754 39033 ft 506 kts 129°
2026-05-03 21:47 24.92472 -76.72245 39036 ft 506 kts 129°
2026-05-03 21:48 24.88638 -76.65738 39035 ft 506 kts 129°
2026-05-03 21:48 24.84796 -76.59237 39037 ft 506 kts 129°
2026-05-03 21:49 24.80950 -76.52733 39039 ft 507 kts 129°
2026-05-03 21:49 24.77109 -76.46234 39039 ft 506 kts 128°
2026-05-03 21:50 24.73267 -76.39749 39041 ft 506 kts 129°
2026-05-03 21:50 24.69422 -76.33274 39020 ft 506 kts 128°
2026-05-03 21:51 24.65575 -76.26807 39033 ft 505 kts 128°
2026-05-03 21:51 24.61727 -76.20355 39043 ft 505 kts 128°
2026-05-03 21:52 24.57883 -76.13907 39035 ft 504 kts 128°
2026-05-03 21:52 24.54118 -76.07398 39042 ft 505 kts 126°
2026-05-03 21:53 24.50496 -76.00796 39043 ft 505 kts 126°
2026-05-03 21:53 24.46847 -75.94159 39044 ft 504 kts 126°
2026-05-03 21:54 24.43183 -75.87610 39046 ft 503 kts 127°
2026-05-03 21:54 24.39496 -75.81084 39045 ft 503 kts 127°
2026-05-03 21:55 24.35810 -75.74559 39041 ft 503 kts 126°
2026-05-03 21:55 24.32142 -75.68042 39034 ft 502 kts 126°
2026-05-03 21:56 24.28478 -75.61531 39034 ft 502 kts 126°
2026-05-03 21:56 24.24812 -75.55018 39035 ft 502 kts 126°
2026-05-03 21:57 24.21134 -75.48517 39038 ft 502 kts 126°
2026-05-03 21:57 24.17446 -75.42019 39036 ft 502 kts 126°
2026-05-03 21:58 24.13763 -75.35513 39032 ft 503 kts 126°
2026-05-03 21:58 24.10075 -75.29006 39032 ft 503 kts 126°
2026-05-03 21:59 24.06373 -75.22501 39034 ft 504 kts 126°
2026-05-03 21:59 24.02670 -75.15993 39037 ft 504 kts 126°
2026-05-03 22:00 23.98962 -75.09486 39038 ft 504 kts 126°
2026-05-03 22:00 23.95255 -75.02981 39034 ft 504 kts 126°
2026-05-03 22:01 23.91543 -74.96481 39037 ft 504 kts 126°
2026-05-03 22:01 23.88449 -74.91080 39039 ft 504 kts 126°
2026-05-03 22:02 23.84715 -74.84583 39040 ft 504 kts 126°
2026-05-03 22:02 23.80995 -74.78088 39042 ft 505 kts 126°
2026-05-03 22:03 23.77271 -74.71591 39042 ft 505 kts 126°
2026-05-03 22:03 23.73536 -74.65106 39043 ft 505 kts 126°
2026-05-03 22:04 23.69807 -74.58623 39046 ft 505 kts 126°
2026-05-03 22:04 23.66071 -74.52142 39046 ft 505 kts 126°
2026-05-03 22:05 23.62334 -74.45658 39049 ft 505 kts 126°
2026-05-03 22:05 23.58593 -74.39187 39028 ft 505 kts 126°
2026-05-03 22:06 23.54847 -74.32721 39036 ft 504 kts 126°
2026-05-03 22:06 23.51103 -74.26266 39046 ft 504 kts 126°
2026-05-03 22:07 23.47357 -74.19819 39052 ft 503 kts 126°
2026-05-03 22:07 23.43619 -74.13376 39052 ft 503 kts 126°
2026-05-03 22:08 23.39876 -74.06935 39052 ft 503 kts 126°
2026-05-03 22:08 23.36130 -74.00508 39051 ft 503 kts 126°
2026-05-03 22:09 23.32384 -73.94081 39050 ft 503 kts 126°
2026-05-03 22:10 23.26766 -73.84454 39055 ft 502 kts 126°
2026-05-03 22:10 23.23021 -73.78041 39053 ft 502 kts 126°
2026-05-03 22:11 23.19267 -73.71638 39039 ft 502 kts 126°
2026-05-03 22:11 23.15510 -73.65246 39047 ft 502 kts 126°
2026-05-03 22:12 23.11752 -73.58849 39045 ft 502 kts 126°
2026-05-03 22:12 23.07990 -73.52459 39047 ft 502 kts 126°
2026-05-03 22:13 23.04222 -73.46073 39048 ft 502 kts 126°
2026-05-03 22:13 23.00462 -73.39675 39050 ft 502 kts 126°
2026-05-03 22:14 22.96699 -73.33285 39051 ft 502 kts 126°
2026-05-03 22:14 22.92925 -73.26901 39049 ft 502 kts 125°
2026-05-03 22:15 22.89151 -73.20523 39054 ft 502 kts 125°
2026-05-03 22:15 22.85369 -73.14150 39056 ft 502 kts 125°
2026-05-03 22:16 22.81586 -73.07780 39040 ft 502 kts 125°
2026-05-03 22:16 22.77808 -73.01414 39043 ft 503 kts 125°
2026-05-03 22:17 22.74028 -72.95037 39048 ft 503 kts 125°
2026-05-03 22:17 22.70209 -72.88635 39051 ft 503 kts 125°
2026-05-03 22:18 22.66414 -72.82268 39046 ft 503 kts 125°
2026-05-03 22:18 22.62627 -72.75896 39051 ft 503 kts 125°
2026-05-03 22:19 22.58832 -72.69540 39056 ft 503 kts 125°
2026-05-03 22:19 22.55024 -72.63185 39054 ft 503 kts 125°
2026-05-03 22:20 22.51216 -72.56832 39054 ft 503 kts 125°
2026-05-03 22:20 22.47414 -72.50486 39058 ft 503 kts 125°
2026-05-03 22:21 22.43607 -72.44141 39044 ft 503 kts 125°
2026-05-03 22:21 22.39797 -72.37809 39051 ft 503 kts 125°
2026-05-03 22:22 22.35984 -72.31479 39056 ft 502 kts 125°
2026-05-03 22:22 22.32166 -72.25155 39050 ft 502 kts 125°
2026-05-03 22:23 22.28355 -72.18831 39057 ft 502 kts 125°
2026-05-03 22:23 22.24542 -72.12516 39059 ft 502 kts 125°
2026-05-03 22:24 22.20727 -72.06205 39057 ft 502 kts 125°
2026-05-03 22:24 22.16909 -71.99897 39058 ft 502 kts 125°
2026-05-03 22:25 22.13095 -71.93597 39054 ft 502 kts 125°
2026-05-03 22:25 22.09273 -71.87299 39055 ft 502 kts 125°
2026-05-03 22:26 22.05454 -71.81009 39044 ft 501 kts 125°
2026-05-03 22:26 22.01638 -71.74730 39057 ft 500 kts 125°
2026-05-03 22:27 21.97824 -71.68473 39064 ft 499 kts 125°
2026-05-03 22:27 21.94013 -71.62228 39062 ft 499 kts 125°
2026-05-03 22:28 21.90204 -71.55990 39061 ft 498 kts 125°
2026-05-03 22:28 21.86402 -71.49765 39059 ft 497 kts 125°
2026-05-03 22:29 21.82613 -71.43557 39064 ft 496 kts 125°
2026-05-03 22:29 21.78822 -71.37359 39060 ft 495 kts 125°
2026-05-03 22:30 21.75032 -71.31178 39055 ft 495 kts 125°
2026-05-03 22:30 21.71241 -71.25009 39054 ft 494 kts 125°
2026-05-03 22:31 21.67445 -71.18837 39040 ft 494 kts 125°
2026-05-03 22:31 21.63654 -71.12680 39056 ft 493 kts 125°
2026-05-03 22:32 21.59873 -71.06539 39057 ft 492 kts 125°
2026-05-03 22:32 21.55796 -71.00664 39058 ft 490 kts 133°
2026-05-03 22:33 21.51330 -70.95144 39053 ft 489 kts 133°
2026-05-03 22:33 21.46873 -70.89623 39052 ft 489 kts 133°
2026-05-03 22:34 21.42417 -70.84103 39050 ft 489 kts 133°
2026-05-03 22:34 21.37958 -70.78587 39049 ft 489 kts 133°
2026-05-03 22:35 21.33504 -70.73084 39047 ft 489 kts 133°
2026-05-03 22:35 21.29047 -70.67585 39042 ft 488 kts 133°
2026-05-03 22:36 21.24594 -70.62097 39049 ft 487 kts 133°
2026-05-03 22:36 21.20141 -70.56620 39050 ft 487 kts 133°
2026-05-03 22:37 21.15669 -70.51116 39049 ft 486 kts 133°
2026-05-03 22:37 21.11232 -70.45652 39050 ft 486 kts 133°
2026-05-03 22:38 21.06792 -70.40198 39049 ft 485 kts 133°
2026-05-03 22:38 21.03107 -70.35673 39048 ft 485 kts 133°
2026-05-03 22:39 20.98664 -70.30237 39047 ft 485 kts 133°
2026-05-03 22:39 20.94219 -70.24808 39037 ft 485 kts 133°
2026-05-03 22:40 20.89783 -70.19373 39044 ft 485 kts 132°
2026-05-03 22:40 20.85392 -70.13995 39046 ft 484 kts 133°
2026-05-03 22:41 20.80953 -70.08585 39047 ft 484 kts 133°
2026-05-03 22:41 20.76516 -70.03180 39050 ft 484 kts 133°
2026-05-03 22:42 20.72080 -69.97779 39046 ft 483 kts 133°
2026-05-03 22:42 20.67649 -69.92375 39049 ft 483 kts 133°
2026-05-03 22:43 20.63219 -69.86972 39048 ft 483 kts 133°
2026-05-03 22:43 20.58785 -69.81585 39049 ft 483 kts 133°
2026-05-03 22:44 20.54345 -69.76204 39046 ft 482 kts 132°
2026-05-03 22:44 20.49911 -69.70839 39055 ft 481 kts 132°
2026-05-03 22:45 20.45492 -69.65484 39054 ft 480 kts 132°
2026-05-03 22:45 20.41082 -69.60139 39054 ft 480 kts 132°
2026-05-03 22:46 20.36669 -69.54802 39049 ft 479 kts 132°
2026-05-03 22:46 20.32260 -69.49471 39055 ft 479 kts 132°
2026-05-03 22:47 20.27848 -69.44147 39051 ft 479 kts 132°
2026-05-03 22:47 20.23430 -69.38830 39053 ft 479 kts 132°
2026-05-03 22:48 20.19011 -69.33517 39056 ft 479 kts 132°
2026-05-03 22:48 20.14600 -69.28206 39055 ft 479 kts 132°
2026-05-03 22:49 20.10193 -69.22891 39048 ft 479 kts 132°
2026-05-03 22:49 20.05747 -69.17550 39049 ft 479 kts 132°
2026-05-03 22:50 20.01324 -69.12252 39054 ft 479 kts 132°
2026-05-03 22:50 19.96900 -69.06950 39048 ft 479 kts 132°
2026-05-03 22:51 19.92485 -69.01645 39051 ft 479 kts 132°
2026-05-03 22:51 19.88066 -68.96348 39056 ft 479 kts 132°
2026-05-03 22:52 19.83701 -68.90993 39046 ft 479 kts 130°
2026-05-03 22:52 19.79528 -68.85478 39051 ft 479 kts 128°
2026-05-03 22:53 19.75388 -68.79932 39051 ft 479 kts 129°
2026-05-03 22:53 19.71067 -68.74543 39052 ft 479 kts 133°
2026-05-03 22:54 19.66423 -68.69473 39056 ft 479 kts 136°
2026-05-03 22:54 19.61723 -68.64467 39056 ft 479 kts 135°
2026-05-03 22:55 19.57094 -68.59379 39057 ft 479 kts 134°
2026-05-03 22:55 19.52516 -68.54244 39057 ft 479 kts 134°
2026-05-03 22:56 19.47931 -68.49119 39056 ft 479 kts 134°
2026-05-03 22:56 19.43321 -68.44016 39055 ft 479 kts 134°
2026-05-03 22:57 19.38703 -68.38924 39056 ft 480 kts 134°
2026-05-03 22:57 19.36394 -68.36375 38944 ft 480 kts 134°
2026-05-03 22:57 19.34090 -68.33822 38717 ft 479 kts 134°
2026-05-03 22:57 19.31790 -68.31272 38450 ft 478 kts 134°
2026-05-03 22:58 19.29492 -68.28726 38184 ft 478 kts 134°
2026-05-03 22:58 19.27195 -68.26184 37922 ft 478 kts 134°
2026-05-03 22:58 19.24892 -68.23649 37662 ft 477 kts 135°
2026-05-03 22:58 19.22588 -68.21116 37407 ft 477 kts 135°
2026-05-03 22:59 19.20292 -68.18588 37158 ft 477 kts 134°
2026-05-03 22:59 19.17993 -68.16057 36907 ft 476 kts 135°
2026-05-03 22:59 19.15700 -68.13531 36658 ft 476 kts 134°
2026-05-03 22:59 19.13410 -68.11004 36231 ft 476 kts 134°
2026-05-03 23:00 19.11107 -68.08461 35353 ft 483 kts 135°
2026-05-03 23:00 19.08773 -68.05884 34476 ft 488 kts 135°
2026-05-03 23:00 19.06419 -68.03290 33727 ft 488 kts 135°
2026-05-03 23:00 19.04085 -68.00718 33133 ft 483 kts 135°
2026-05-03 23:01 19.01771 -67.98172 32577 ft 477 kts 135°
2026-05-03 23:01 18.99481 -67.95660 32005 ft 472 kts 134°
2026-05-03 23:01 18.97212 -67.93169 31432 ft 468 kts 134°
2026-05-03 23:01 18.94965 -67.90704 30878 ft 463 kts 134°
2026-05-03 23:02 18.92735 -67.88261 30306 ft 459 kts 134°
2026-05-03 23:02 18.90525 -67.85843 29684 ft 455 kts 134°
2026-05-03 23:02 18.88346 -67.83460 29160 ft 448 kts 134°
2026-05-03 23:02 18.86194 -67.81103 28611 ft 443 kts 134°
2026-05-03 23:03 18.84073 -67.78780 28084 ft 437 kts 134°
2026-05-03 23:03 18.81971 -67.76479 27570 ft 432 kts 134°
2026-05-03 23:03 18.79899 -67.74210 27068 ft 427 kts 134°
2026-05-03 23:03 18.77853 -67.71969 26589 ft 422 kts 134°
2026-05-03 23:04 18.75826 -67.69754 26118 ft 417 kts 134°
2026-05-03 23:04 18.73824 -67.67568 25664 ft 412 kts 134°
2026-05-03 23:04 18.71840 -67.65403 25219 ft 408 kts 134°
2026-05-03 23:04 18.69875 -67.63258 24779 ft 405 kts 134°
2026-05-03 23:05 18.67930 -67.61128 24342 ft 402 kts 134°
2026-05-03 23:05 18.65992 -67.59008 23914 ft 400 kts 134°
2026-05-03 23:05 18.64068 -67.56905 23419 ft 398 kts 134°
2026-05-03 23:05 18.62157 -67.54818 22941 ft 394 kts 134°
2026-05-03 23:06 18.60263 -67.52752 22468 ft 390 kts 134°
2026-05-03 23:06 18.58388 -67.50708 22007 ft 386 kts 135°
2026-05-03 23:06 18.56531 -67.48681 21521 ft 382 kts 135°
2026-05-03 23:06 18.54691 -67.46675 21051 ft 379 kts 135°
2026-05-03 23:07 18.52866 -67.44689 20565 ft 376 kts 135°
2026-05-03 23:07 18.51052 -67.42715 20082 ft 374 kts 135°
2026-05-03 23:07 18.49248 -67.40752 19596 ft 372 kts 136°
2026-05-03 23:07 18.47452 -67.38797 19115 ft 370 kts 136°
2026-05-03 23:08 18.45664 -67.36852 18624 ft 369 kts 136°
2026-05-03 23:08 18.43884 -67.34915 18119 ft 368 kts 136°
2026-05-03 23:08 18.42089 -67.32963 17599 ft 365 kts 136°
2026-05-03 23:08 18.40331 -67.31055 17127 ft 361 kts 136°
2026-05-03 23:09 18.38588 -67.29161 16622 ft 359 kts 136°
2026-05-03 23:09 18.36865 -67.27290 16151 ft 356 kts 135°
2026-05-03 23:09 18.35133 -67.25414 15570 ft 356 kts 136°
2026-05-03 23:09 18.33443 -67.23581 15192 ft 351 kts 135°
2026-05-03 23:10 18.31732 -67.21720 14732 ft 348 kts 135°
2026-05-03 23:10 18.30053 -67.19897 14271 ft 346 kts 134°
2026-05-03 23:10 18.28404 -67.18110 13813 ft 343 kts 134°
2026-05-03 23:10 18.26729 -67.16292 13305 ft 340 kts 134°
2026-05-03 23:11 18.25028 -67.14587 12860 ft 336 kts 141°
2026-05-03 23:11 18.23221 -67.13060 12425 ft 332 kts 141°
2026-05-03 23:11 18.21430 -67.11548 11993 ft 328 kts 141°
2026-05-03 23:11 18.19661 -67.10054 11563 ft 325 kts 141°
2026-05-03 23:12 18.17908 -67.08572 11137 ft 322 kts 141°
2026-05-03 23:12 18.16168 -67.07105 10718 ft 320 kts 141°
2026-05-03 23:12 18.14444 -67.05649 10293 ft 317 kts 141°
2026-05-03 23:12 18.12749 -67.04217 10146 ft 305 kts 141°
2026-05-03 23:13 18.11121 -67.02846 9956 ft 296 kts 141°
2026-05-03 23:13 18.09528 -67.01504 9717 ft 292 kts 141°
2026-05-03 23:13 18.07948 -67.00172 9427 ft 290 kts 141°
2026-05-03 23:13 18.06383 -66.98852 9115 ft 288 kts 141°
2026-05-03 23:14 18.04821 -66.97536 8803 ft 287 kts 141°
2026-05-03 23:14 18.03270 -66.96230 8483 ft 285 kts 140°
2026-05-03 23:14 18.01728 -66.94930 8169 ft 283 kts 140°
2026-05-03 23:14 18.00713 -66.94074 7976 ft 282 kts 140°
2026-05-03 23:15 17.99199 -66.92796 7696 ft 276 kts 140°
2026-05-03 23:15 17.97709 -66.91542 7376 ft 273 kts 140°
2026-05-03 23:15 17.96237 -66.90304 7071 ft 270 kts 140°
2026-05-03 23:15 17.94774 -66.89075 6777 ft 268 kts 140°
2026-05-03 23:16 17.93329 -66.87840 6478 ft 268 kts 136°
2026-05-03 23:16 17.92295 -66.86252 6178 ft 264 kts 109°
2026-05-03 23:16 17.92114 -66.84361 6015 ft 264 kts 82°
2026-05-03 23:16 17.92796 -66.82603 5978 ft 258 kts 57°
2026-05-03 23:17 17.93934 -66.81119 5402 ft 266 kts 51°
2026-05-03 23:17 17.95151 -66.79651 4951 ft 260 kts 50°
2026-05-03 23:17 17.96335 -66.78254 4446 ft 255 kts 50°
2026-05-03 23:17 17.97348 -66.76778 4035 ft 242 kts 64°
2026-05-03 23:18 17.98086 -66.75289 3724 ft 219 kts 64°
2026-05-03 23:18 17.98756 -66.73941 3447 ft 198 kts 64°
2026-05-03 23:18 17.99366 -66.72704 3205 ft 185 kts 65°
2026-05-03 23:18 17.99931 -66.71552 2997 ft 171 kts 64°
2026-05-03 23:19 18.00459 -66.70475 2761 ft 159 kts 65°
2026-05-03 23:19 18.00942 -66.69484 2565 ft 146 kts 66°
2026-05-03 23:19 18.01384 -66.68579 2390 ft 132 kts 66°
2026-05-03 23:19 18.01708 -66.67696 2224 ft 127 kts 81°
2026-05-03 23:20 18.01761 -66.66773 2049 ft 126 kts 96°
2026-05-03 23:20 18.01712 -66.65864 1867 ft 123 kts 95°
2026-05-03 23:20 18.01668 -66.64974 1687 ft 121 kts 96°
2026-05-03 23:20 18.01625 -66.64096 1501 ft 120 kts 96°
2026-05-03 23:21 18.01583 -66.63225 1322 ft 120 kts 95°
2026-05-03 23:21 18.01539 -66.62358 1139 ft 120 kts 96°
2026-05-03 23:21 18.01494 -66.61471 958 ft 121 kts 94°
2026-05-03 23:21 18.01451 -66.60592 790 ft 121 kts 96°
2026-05-03 23:22 18.01369 -66.58806 442 ft 122 kts 97°
2026-05-03 23:22 18.01295 -66.57932 190 ft 118 kts 104°
2026-05-03 23:22 18.01089 -66.57100 72 ft 116 kts 110°
2026-05-03 23:23 18.00853 -66.56370 37 ft 88 kts 108°
2026-05-03 23:23 18.00719 -66.55929 9 ft 38 kts 108°
2026-05-03 23:23 18.00650 -66.55705 10 ft 30 kts 107°
2026-05-03 23:23 18.00598 -66.55531 9 ft 16 kts 106°
2026-05-03 23:24 18.00598 -66.55437 10 ft 12 kts 44°
2026-05-03 23:24 18.00674 -66.55435 8 ft 13 kts 312°
2026-05-03 23:24 18.00704 -66.55517 9 ft 9 kts 288°
2026-05-03 23:24 18.00726 -66.55591 10 ft 11 kts 288°
2026-05-03 23:25 18.00744 -66.55650 8 ft 9 kts 287°
2026-05-03 23:25 18.00766 -66.55721 9 ft 11 kts 289°
2026-05-03 23:25 18.00792 -66.55802 8 ft 12 kts 288°
2026-05-03 23:25 18.00819 -66.55890 8 ft 14 kts 288°
2026-05-03 23:26 18.00845 -66.55977 8 ft 9 kts 288°
2026-05-03 23:26 18.00868 -66.56042 10 ft 10 kts 295°
2026-05-03 23:26 18.00893 -66.56110 8 ft 7 kts 288°
2026-05-03 23:26 18.00910 -66.56166 10 ft 8 kts 287°
2026-05-03 23:27 18.00929 -66.56229 21 ft 8 kts 292°
2026-05-03 23:27 18.00959 -66.56240 24 ft 4 kts
2026-05-03 23:27 18.00985 -66.56235 21 ft 4 kts
2026-05-03 23:27 18.01009 -66.56249 15 ft 5 kts 322°
2026-05-03 23:28 18.01025 -66.56263 35 ft 2 kts 319°
2026-05-03 23:28 18.01031 -66.56269 37 ft 0 kts 319°
2026-05-03 23:28 18.01035 -66.56272 37 ft 0 kts 319°